Station CNII2 - Northerly Isle, IL Image indicating link to RSS feed of recent meteorological observations for station CNII2


Conditions at CNII2 as of
(5:00 pm CDT)
2200 GMT on 05/26/2024:
     

Click on the graph icon in the table below to see a time series plot of the last five days of that observation.

5-day plot - Wind Direction Wind Direction (WDIR): E ( 80 deg true )
5-day plot - Wind Speed Wind Speed (WSPD): 5.1 kts
5-day plot - Wind Gust Wind Gust (GST): 11.1 kts
5-day plot - Air Temperature Air Temperature (ATMP): 61.7 °F
5-day plot - Dew Point Dew Point (DEWP): 58.1 °F
5-day plot - Wind Speed at 10 Meters Wind Speed at 10 meters (WSPD10M): 5.8 kts
5-day plot - Wind Speed at 20 Meters Wind Speed at 20 meters (WSPD20M): 5.8 kts
5-day plot -  Wind Speed, Wind Gust and Atmospheric Pressure Combined plot of Wind Speed, Gust, and Air Pressure
Previous observations
TIME
(CDT)
5-day plot - Wind Direction
WDIR
 
5-day plot - Wind Speed
WSPD
kts
5-day plot - Wind Gust
GST
kts
5-day plot - Wave Height
WVHT
ft
5-day plot - Dominant Wave Period
DPD
sec
5-day plot - Average Wave Period
APD
sec
5-day plot - Mean Wave Direction
MWD
 
5-day plot - Atmospheric Pressure
PRES
in
5-day plot - Pressure Tendency
PTDY
in
5-day plot - Air Temperature
ATMP
°F
5-day plot - Water Temperature
WTMP
°F
5-day plot - Dew Point
DEWP
°F
5-day plot - Salinity
SAL
psu
5-day plot - Visibility
VIS
nmi
5-day plot - Tide (above MLLW)
TIDE
ft
2024-05-26 04:45 pm E 6.0 11.1------ 61.3- 57.7---
2024-05-26 04:30 pm E 4.1 11.1------ 60.8- 57.6---
2024-05-26 04:15 pm E 4.1 11.1------ 60.8- 57.6---
2024-05-26 04:00 pm E 8.9 11.1------ 60.6- 57.2---
2024-05-26 03:45 pm E 8.0 11.1------ 60.6- 57.2---
2024-05-26 03:30 pm E 8.9 11.1------ 61.3- 57.6---
2024-05-26 03:15 pm E 7.0 11.1------ 61.5- 58.3---
2024-05-26 03:00 pm E 8.9 11.1------ 60.6- 57.7---
2024-05-26 02:45 pm E 11.1------- 60.8- 58.1---
2024-05-26 02:30 pmENE 8.0------- 59.9- 57.6---
2024-05-26 02:15 pmENE 6.0 8.0------ 59.2- 56.8---
2024-05-26 02:00 pmENE 5.1 8.0------ 59.0- 56.7---
2024-05-26 01:45 pm E 6.0 7.0------ 58.8- 56.3---
2024-05-26 01:30 pmENE 5.1 7.0------ 58.8- 56.3---
2024-05-26 01:15 pmENE 6.0 7.0------ 58.8- 56.3---
2024-05-26 01:00 pm NE 2.9 7.0------ 58.8- 56.3---
2024-05-26 12:45 pm NE 5.1 8.9------ 58.6- 55.9---
2024-05-26 12:30 pmENE 5.1 8.9------ 58.6- 56.1---
2024-05-26 12:15 pm E 5.1 8.9------ 58.3- 55.6---
2024-05-26 12:00 pm E 5.1 8.9------ 58.6- 55.9---
2024-05-26 11:45 am E 7.0 7.0------ 58.3- 55.4---
2024-05-26 11:30 am E 1.9 7.0------ 57.4- 54.3---
2024-05-26 11:15 amSSE 5.1 7.0------ 57.4- 53.8---
2024-05-26 11:00 amSSW 7.0 7.0------ 59.2- 52.7---
2024-05-26 10:45 am S 6.0 6.0------ 60.6- 51.8---
2024-05-26 10:30 am SW 2.9 6.0------ 59.5- 52.3---
2024-05-26 10:15 am- 0.0 6.0------ 59.9- 51.4---
2024-05-26 10:00 am NE 6.0 6.0------ 58.8- 52.2---
2024-05-26 09:45 am N 5.1 8.9------ 60.1- 51.8---
2024-05-26 09:30 amWNW 1.9 8.9------ 60.4- 51.1---
2024-05-26 09:15 amENE 2.9 8.9------ 60.8- 51.3---
2024-05-26 09:00 amESE 1.0 8.9------ 60.8- 50.5---
2024-05-26 08:45 am E 5.1 9.9------ 60.8- 50.2---
2024-05-26 08:30 amENE 7.0 9.9------ 60.8- 50.4---
2024-05-26 08:15 am E 7.0 9.9------ 60.6- 50.9---
2024-05-26 08:00 am E 8.0 9.9------ 60.4- 51.6---
2024-05-26 07:45 am E 8.0------- 60.6- 51.6---
2024-05-26 07:30 am E 7.0------- 60.3- 52.2---
2024-05-26 07:15 amENE 6.0------- 60.3- 52.0---
2024-05-26 07:00 amENE 5.1 5.1------ 60.3- 51.8---
2024-05-26 06:45 am E 4.1 8.0------ 59.9- 51.6---
2024-05-26 06:30 am E 4.1 8.0------ 59.7- 51.1---
2024-05-26 06:15 am E 4.1 8.0------ 59.2- 51.1---
2024-05-26 06:00 am E 4.1 8.0------ 59.2- 50.4---
2024-05-26 05:45 am E 2.9 8.9------ 58.8- 51.3---
2024-05-26 05:30 am E 5.1 8.9------ 58.6- 50.0---
2024-05-26 05:15 am E 6.0 8.9------ 58.8- 50.5---
2024-05-26 05:00 amESE 6.0 8.9------ 58.8- 50.2---
2024-05-26 04:45 am E 7.0 8.9------ 58.6- 48.9---
2024-05-26 04:30 am E 8.0 8.9------ 58.6- 49.1---
2024-05-26 04:15 amESE 6.0 8.9------ 58.6- 48.7---
2024-05-26 04:00 amESE 7.0 8.9------ 58.6- 47.8---
2024-05-26 03:45 am E 7.0 9.9------ 59.2- 47.8---
2024-05-26 03:30 amESE 6.0 9.9------ 59.4- 47.5---
2024-05-26 03:15 amESE 5.1 9.9------ 59.0- 47.8---
2024-05-26 03:00 am E 6.0 9.9------ 58.6- 48.4---
2024-05-26 02:45 amESE 8.0------- 59.0- 50.7---
2024-05-26 02:30 amESE 8.9------- 59.0- 51.3---
2024-05-26 02:15 am E 7.0------- 59.4- 50.5---
2024-05-26 02:00 am E 6.0------- 59.2- 47.5---
2024-05-26 01:45 am E 4.1 5.1------ 59.0- 48.2---
2024-05-26 01:30 am E 4.1 5.1------ 58.8- 48.6---
2024-05-26 01:15 amESE 1.9 5.1------ 58.6- 49.3---
2024-05-26 01:00 am- 0.0 5.1------ 58.6- 49.3---
2024-05-26 12:45 am E 4.1------- 58.6- 49.3---
2024-05-26 12:30 amESE 1.9 4.1------ 58.5- 49.5---
2024-05-26 12:15 amESE 1.9 4.1------ 58.3- 49.1---
2024-05-26 12:00 am E 2.9 4.1------ 58.1- 48.2---
2024-05-25 11:45 pmESE 2.9 2.9------ 57.9- 48.0---
2024-05-25 11:30 pm E 1.9 2.9------ 58.3- 48.0---
2024-05-25 11:15 pm E 2.9 2.9------ 57.9- 48.2---
2024-05-25 11:00 pm E 2.9 2.9------ 57.6- 48.7---
2024-05-25 10:45 pm E 2.9 4.1------ 57.6- 48.2---
2024-05-25 10:30 pm- 0.0 4.1------ 58.3- 48.6---
2024-05-25 10:15 pmENE 1.0 4.1------ 57.4- 48.2---
2024-05-25 10:00 pmENE 2.9 4.1------ 57.4- 48.9---
2024-05-25 09:45 pm E 4.1 5.1------ 57.6- 49.5---
2024-05-25 09:30 pm E 1.9 5.1------ 57.9- 49.3---
2024-05-25 09:15 pmESE 4.1 5.1------ 57.6- 49.3---
2024-05-25 09:00 pmESE 1.9 5.1------ 57.7- 48.7---
2024-05-25 08:45 pmESE 4.1 5.1------ 57.6- 49.1---
2024-05-25 08:30 pm E 4.1 5.1------ 57.6- 48.7---
2024-05-25 08:15 pmESE 2.9 5.1------ 57.7- 48.0---
2024-05-25 08:00 pmESE 1.9 5.1------ 57.9- 47.7---
2024-05-25 07:45 pmESE 2.9 6.0------ 58.1- 46.9---
2024-05-25 07:30 pmSSE 1.9 6.0------ 59.2- 46.9---
2024-05-25 07:15 pm E 4.1 6.0------ 59.5- 46.4---
2024-05-25 07:00 pmESE 4.1 6.0------ 60.3- 47.3---
2024-05-25 06:45 pm SE 2.9 7.0------ 60.4- 46.6---
2024-05-25 06:30 pmESE 5.1 7.0------ 60.4- 46.0---
2024-05-25 06:15 pmESE 5.1 7.0------ 61.2- 45.1---
2024-05-25 06:00 pm E 4.1 7.0------ 61.3- 45.1---
2024-05-25 05:45 pm E 2.9 8.0------ 61.5- 45.1---
2024-05-25 05:30 pm E 5.1 8.0------ 61.5- 45.3---
2024-05-25 05:15 pm E 6.0 8.0------ 61.7- 44.6---
2024-05-25 05:00 pm E 5.1 8.0------ 62.2- 46.2---